Weather History for Shreveport, LA

Change the Weather History Date:

Thursday, February 7, 2013

  Actual Average Record
Temperature  
Mean Temperature 58 °F 49 °F  
Max Temperature 65 °F 60 °F 82 °F (1950)
Min Temperature 50 °F 38 °F 4 °F (1895)
Degree Days  
Heating Degree Days 7 16  
Month to date heating degree days 81 117  
Since 1 July heating degree days 1319 1589  
Cooling Degree Days 0 0  
Month to date cooling degree days 0 0  
Year to date cooling degree days 8 4  
Growing Degree Days 7 (Base 50)    
Moisture  
Dew Point 55 °F    
Average Humidity 87    
Maximum Humidity 100    
Minimum Humidity 73    
Precipitation  
Precipitation 0.00 in 0.17 in 2.11 in (1884)
Month to date precipitation 0.16 1.15  
Year to date precipitation 4.92 5.35  
Snow  
Snow 0.00 in - - ()
Month to date snowfall 0.0  
Since 1 July snowfall 0.1  
Snow Depth 0.00 in    
Sea Level Pressure  
Sea Level Pressure 29.93 in    
Wind  
Wind Speed 4 mph (SSE)    
Max Wind Speed 10 mph    
Max Gust Speed 13 mph    
Visibility 6 miles    
Events Fog    
T = Trace of Precipitation, MM = Missing Value Source: NWS Daily Summary

Daily Weather History Graph

Daily Weather History Graph

Search for Another Location

Airport:

Trip Planner

Search our weather history database for the weather conditions in past years. The results will help you decide how hot, cold, wet, or windy it might be!

Date:

Astronomy

Feb. 07, 2013 Rise Set
Actual Time 7:04 AM CST 5:54 PM CST
Civil Twilight 6:39 AM CST 6:19 PM CST
Nautical Twilight 6:10 AM CST 6:48 PM CST
Astronomical Twilight 5:41 AM CST 7:17 PM CST
Moon 4:39 AM CST (2/7) 3:24 PM CST (2/7)
Length of Visible Light 11h 40m
Length of Day
10h 49m
Waning Crescent, 9% of the Moon is Illuminated
Feb 7
Waning Crescent
Feb 10
New
Feb 17
First Quarter
Feb 25
Full
Mar 4
Last Quarter

Hourly Weather History & Observations

Time (CST) Temp. Dew Point Humidity Pressure Visibility Wind Dir Wind Speed Gust Speed Precip Events Conditions
12:04 AM 57.2 °F 55.4 °F 94% 29.97 in 6.0 mi East 4.6 mph - N/A   Overcast
12:56 AM 57.9 °F 55.9 °F 93% 29.96 in 6.0 mi Calm Calm - N/A   Overcast
1:15 AM 57.2 °F 55.4 °F 94% 29.96 in 6.0 mi Calm Calm - N/A   Overcast
1:56 AM 57.0 °F 55.9 °F 96% 29.94 in 6.0 mi Calm Calm - N/A   Overcast
2:28 AM 57.2 °F 55.4 °F 94% 29.94 in 4.0 mi Calm Calm - N/A   Overcast
2:56 AM 57.0 °F 55.9 °F 96% 29.93 in 3.0 mi Calm Calm - N/A   Overcast
3:15 AM 57.2 °F 55.4 °F 94% 29.93 in 2.0 mi East 3.5 mph - N/A   Overcast
3:45 AM 57.2 °F 55.4 °F 94% 29.92 in 1.5 mi Calm Calm - N/A   Overcast
3:56 AM 57.0 °F 55.9 °F 96% 29.92 in 2.0 mi Calm Calm - N/A   Overcast
4:56 AM 57.0 °F 55.9 °F 96% 29.92 in 2.5 mi Calm Calm - N/A   Overcast
5:56 AM 55.9 °F 55.0 °F 97% 29.91 in 2.0 mi Calm Calm - N/A Fog Patches of Fog
6:29 AM 51.8 °F 51.8 °F 100% 29.92 in 1.5 mi Calm Calm - N/A Fog Patches of Fog
6:37 AM 53.6 °F 51.8 °F 94% 29.92 in 0.5 mi Calm Calm - N/A Fog Fog
6:51 AM 50.0 °F 50.0 °F 100% 29.92 in 0.1 mi Calm Calm - N/A Fog Fog
6:56 AM 50.0 °F 50.0 °F 100% 29.92 in 0.1 mi Calm Calm - N/A Fog Fog
7:22 AM 53.6 °F 53.6 °F 100% 29.94 in 0.1 mi Calm Calm - N/A Fog Fog
7:56 AM 55.0 °F 54.0 °F 96% 29.94 in 0.1 mi Calm Calm - N/A Fog Fog
8:56 AM 55.9 °F 55.9 °F 100% 29.95 in 0.1 mi SSE 4.6 mph - N/A Fog Fog
9:33 AM 57.2 °F 57.2 °F 100% 29.96 in 0.2 mi South 4.6 mph - N/A Fog Fog
9:40 AM 57.2 °F 57.2 °F 100% 29.96 in 1.0 mi South 4.6 mph - N/A   Overcast
9:56 AM 57.2 °F 57.2 °F 100% 29.97 in 2.0 mi South 5.8 mph - N/A   Overcast
10:06 AM 57.2 °F 57.2 °F 100% 29.97 in 3.0 mi South 5.8 mph - N/A   Overcast
10:35 AM 57.2 °F 57.2 °F 100% 29.98 in 6.0 mi SSW 9.2 mph - N/A   Overcast
10:56 AM 57.9 °F 55.9 °F 93% 29.98 in 7.0 mi SSW 9.2 mph - N/A   Overcast
11:26 AM 60.8 °F 55.4 °F 82% 29.97 in 10.0 mi SSW 4.6 mph - N/A   Overcast
11:56 AM 62.1 °F 55.9 °F 80% 29.96 in 10.0 mi SW 5.8 mph - N/A   Overcast
12:56 PM 63.0 °F 55.9 °F 78% 29.93 in 10.0 mi South 5.8 mph - N/A   Overcast
1:56 PM 63.0 °F 55.0 °F 75% 29.91 in 10.0 mi South 6.9 mph - N/A   Overcast
2:56 PM 64.0 °F 55.9 °F 75% 29.89 in 10.0 mi SE 4.6 mph - N/A   Overcast
3:56 PM 64.0 °F 55.0 °F 73% 29.87 in 10.0 mi SE 9.2 mph - N/A   Overcast
4:56 PM 63.0 °F 55.9 °F 78% 29.89 in 10.0 mi SSE 6.9 mph - N/A   Overcast
5:56 PM 62.1 °F 55.9 °F 80% 29.90 in 10.0 mi SSE 3.5 mph - N/A   Overcast
6:43 PM 60.8 °F 55.4 °F 82% 29.90 in 10.0 mi SE 4.6 mph - N/A   Mostly Cloudy
6:56 PM 59.0 °F 55.0 °F 87% 29.90 in 10.0 mi SE 4.6 mph - N/A   Scattered Clouds
7:56 PM 55.9 °F 54.0 °F 93% 29.91 in 10.0 mi SSE 3.5 mph - N/A   Partly Cloudy
8:22 PM 57.2 °F 55.4 °F 94% 29.92 in 10.0 mi South 3.5 mph - N/A   Mostly Cloudy
8:56 PM 57.9 °F 55.9 °F 93% 29.92 in 10.0 mi SE 3.5 mph - N/A   Overcast
9:56 PM 59.0 °F 55.9 °F 90% 29.94 in 10.0 mi SSE 4.6 mph - N/A   Overcast
10:56 PM 59.0 °F 55.9 °F 90% 29.94 in 10.0 mi South 4.6 mph - N/A   Overcast
11:38 PM 55.4 °F 53.6 °F 94% 29.95 in 9.0 mi South 5.8 mph - N/A   Scattered Clouds
11:56 PM 55.9 °F 54.0 °F 93% 29.95 in 8.0 mi Calm Calm - N/A   Scattered Clouds